RYR4KB EDJA-EDDG

Flight info

Callsign RYR4KB
Flight time 0h 55m
Altitude 32000
Route LUPOL5B LUPOL Z79 SUDEN Z1 ETAGO Z3 ABUMO N850 GISEM Z505 ARPEG Z850 HMM HMM1B
Aircraft B737/M-SDE2E3FGHIRWXY/LB1

Departure

Time 2026-04-26 19:43
Airport Memmingen Allgau Airport (EDJA)

Arrival

Time 2026-04-26 20:39
Airport Münster Osnabrück Airport (EDDG)
Time Latitude Longitude Altitude Speed Heading
2026-04-26 19:19 47.98747 10.22795 2076 ft 0 kts 51°
2026-04-26 19:40 47.98747 10.22800 2073 ft 2 kts 75°
2026-04-26 19:40 47.98735 10.22814 2074 ft 3 kts 168°
2026-04-26 19:40 47.98717 10.22799 2075 ft 3 kts 221°
2026-04-26 19:40 47.98703 10.22774 2076 ft 4 kts 240°
2026-04-26 19:41 47.98689 10.22735 2076 ft 5 kts 233°
2026-04-26 19:41 47.98632 10.22715 2078 ft 14 kts 177°
2026-04-26 19:41 47.98520 10.22703 2082 ft 17 kts 199°
2026-04-26 19:41 47.98467 10.22624 2084 ft 16 kts 239°
2026-04-26 19:42 47.98382 10.22557 2087 ft 10 kts 151°
2026-04-26 19:42 47.98355 10.22622 2086 ft 2 kts 58°
2026-04-26 19:43 47.98368 10.22653 2086 ft 19 kts 58°
2026-04-26 19:43 47.98591 10.23212 2079 ft 110 kts 59°
2026-04-26 19:43 47.99101 10.24526 2258 ft 172 kts 61°
2026-04-26 19:43 47.99715 10.26183 3249 ft 186 kts 61°
2026-04-26 19:44 48.00272 10.27602 4261 ft 189 kts 60°
2026-04-26 19:44 48.00958 10.29302 5408 ft 192 kts 60°
2026-04-26 19:44 48.01644 10.31000 6549 ft 180 kts 58°
2026-04-26 19:44 48.02293 10.32604 7096 ft 181 kts 58°
2026-04-26 19:45 48.02930 10.34179 7203 ft 175 kts 58°
2026-04-26 19:45 48.03613 10.35649 7181 ft 170 kts 37°
2026-04-26 19:45 48.04675 10.36162 7223 ft 162 kts 348°
2026-04-26 19:45 48.05745 10.35590 7693 ft 166 kts 336°
2026-04-26 19:46 48.06904 10.34887 8149 ft 198 kts 336°
2026-04-26 19:46 48.08292 10.34036 8427 ft 232 kts 336°
2026-04-26 19:46 48.09859 10.32930 8738 ft 264 kts 321°
2026-04-26 19:46 48.10946 10.30713 9740 ft 267 kts 294°
2026-04-26 19:47 48.11673 10.28157 10847 ft 268 kts 291°
2026-04-26 19:47 48.11910 10.27281 11182 ft 271 kts 291°
2026-04-26 19:47 48.13170 10.22581 11828 ft 318 kts 291°
2026-04-26 19:47 48.14017 10.19448 12592 ft 329 kts 292°
2026-04-26 19:48 48.14889 10.16250 13599 ft 334 kts 292°
2026-04-26 19:48 48.15775 10.13018 14602 ft 337 kts 292°
2026-04-26 19:48 48.16676 10.09744 15598 ft 341 kts 292°
2026-04-26 19:48 48.17586 10.06438 16607 ft 345 kts 292°
2026-04-26 19:49 48.18507 10.03097 17597 ft 349 kts 292°
2026-04-26 19:49 48.19440 9.99706 18565 ft 354 kts 292°
2026-04-26 19:49 48.20386 9.96264 19411 ft 358 kts 292°
2026-04-26 19:49 48.21328 9.92828 20267 ft 362 kts 292°
2026-04-26 19:50 48.22378 9.89383 21119 ft 366 kts 298°
2026-04-26 19:50 48.23694 9.86081 21827 ft 373 kts 303°
2026-04-26 19:50 48.25107 9.82814 22181 ft 375 kts 303°
2026-04-26 19:50 48.26545 9.79516 22198 ft 377 kts 303°
2026-04-26 19:51 48.27956 9.76223 22209 ft 375 kts 303°
2026-04-26 19:51 48.29355 9.72899 22219 ft 375 kts 302°
2026-04-26 19:51 48.30747 9.69550 22408 ft 381 kts 302°
2026-04-26 19:51 48.31785 9.67040 22914 ft 384 kts 302°
2026-04-26 19:52 48.32757 9.64682 23625 ft 383 kts 302°
2026-04-26 19:52 48.34210 9.61154 24449 ft 384 kts 302°
2026-04-26 19:52 48.35140 9.58882 24912 ft 386 kts 302°
2026-04-26 19:52 48.37017 9.54278 25778 ft 391 kts 302°
2026-04-26 19:53 48.37938 9.52046 26188 ft 393 kts 305°
2026-04-26 19:53 48.39557 9.49330 26745 ft 395 kts 322°
2026-04-26 19:53 48.42637 9.46829 27806 ft 393 kts 340°
2026-04-26 19:53 48.45306 9.46054 28708 ft 392 kts 355°
2026-04-26 19:54 48.47142 9.46016 29339 ft 389 kts 359°
2026-04-26 19:54 48.49846 9.46095 30230 ft 387 kts 359°
2026-04-26 19:54 48.52511 9.46166 30909 ft 386 kts 358°
2026-04-26 19:54 48.55176 9.45876 31527 ft 384 kts 348°
2026-04-26 19:55 48.57766 9.44918 32138 ft 383 kts 343°
2026-04-26 19:55 48.60305 9.43850 32185 ft 382 kts 342°
2026-04-26 19:55 48.65461 9.41562 32240 ft 396 kts 342°
2026-04-26 19:56 48.68145 9.40350 32241 ft 408 kts 342°
2026-04-26 19:56 48.70898 9.39107 32247 ft 418 kts 342°
2026-04-26 19:56 48.76597 9.36541 32228 ft 435 kts 342°
2026-04-26 19:57 48.82447 9.33913 32212 ft 438 kts 342°
2026-04-26 19:57 48.88277 9.31292 32217 ft 436 kts 342°
2026-04-26 19:58 48.94004 9.28710 32233 ft 434 kts 342°
2026-04-26 19:58 48.99768 9.26104 32220 ft 433 kts 342°
2026-04-26 19:59 49.05539 9.23489 32236 ft 431 kts 342°
2026-04-26 19:59 49.11248 9.20895 32241 ft 430 kts 342°
2026-04-26 20:00 49.16973 9.18287 32252 ft 429 kts 342°
2026-04-26 20:00 49.22698 9.15674 32249 ft 429 kts 342°
2026-04-26 20:01 49.28415 9.13057 32248 ft 429 kts 342°
2026-04-26 20:01 49.34133 9.10434 32246 ft 429 kts 342°
2026-04-26 20:02 49.39816 9.07821 32259 ft 429 kts 342°
2026-04-26 20:02 49.44606 9.05613 32252 ft 429 kts 342°
2026-04-26 20:03 49.51301 9.02520 32244 ft 430 kts 342°
2026-04-26 20:03 49.57032 8.99865 32245 ft 430 kts 342°
2026-04-26 20:04 49.62712 8.97227 32255 ft 429 kts 342°
2026-04-26 20:04 49.67596 8.94954 32253 ft 429 kts 342°
2026-04-26 20:05 49.73321 8.92283 32244 ft 428 kts 342°
2026-04-26 20:05 49.79021 8.89618 32247 ft 428 kts 342°
2026-04-26 20:06 49.84719 8.86946 32248 ft 428 kts 342°
2026-04-26 20:06 49.90420 8.84267 32251 ft 428 kts 342°
2026-04-26 20:07 49.96125 8.81580 32259 ft 428 kts 342°
2026-04-26 20:07 50.01825 8.78888 32263 ft 427 kts 342°
2026-04-26 20:08 50.07480 8.76210 32263 ft 427 kts 342°
2026-04-26 20:08 50.13170 8.73510 32263 ft 427 kts 341°
2026-04-26 20:09 50.18861 8.70802 32267 ft 427 kts 341°
2026-04-26 20:09 50.24559 8.68084 32262 ft 428 kts 341°
2026-04-26 20:10 50.30254 8.65360 32262 ft 428 kts 341°
2026-04-26 20:10 50.35945 8.62632 32267 ft 428 kts 341°
2026-04-26 20:11 50.41638 8.59896 32265 ft 428 kts 341°
2026-04-26 20:12 50.50150 8.55792 32274 ft 428 kts 341°
2026-04-26 20:12 50.55841 8.53039 32273 ft 428 kts 341°
2026-04-26 20:13 50.61532 8.50280 32278 ft 428 kts 341°
2026-04-26 20:13 50.67229 8.47511 32276 ft 428 kts 341°
2026-04-26 20:14 50.72931 8.44732 32277 ft 428 kts 341°
2026-04-26 20:14 50.78617 8.41954 32265 ft 428 kts 341°
2026-04-26 20:15 50.84272 8.39184 32278 ft 428 kts 341°
2026-04-26 20:15 50.89954 8.36393 32276 ft 428 kts 341°
2026-04-26 20:16 50.95607 8.33609 32279 ft 428 kts 341°
2026-04-26 20:16 51.01276 8.30747 32280 ft 427 kts 338°
2026-04-26 20:16 51.03974 8.28786 31978 ft 429 kts 330°
2026-04-26 20:17 51.06548 8.26437 31341 ft 424 kts 328°
2026-04-26 20:17 51.09080 8.24105 30658 ft 417 kts 329°
2026-04-26 20:17 51.11581 8.21832 30030 ft 410 kts 329°
2026-04-26 20:17 51.13254 8.20330 29590 ft 405 kts 329°
2026-04-26 20:18 51.16481 8.17449 28814 ft 398 kts 329°
2026-04-26 20:18 51.18882 8.15308 28241 ft 394 kts 329°
2026-04-26 20:18 51.21264 8.13179 27644 ft 391 kts 329°
2026-04-26 20:18 51.23635 8.11055 27053 ft 390 kts 329°
2026-04-26 20:19 51.26004 8.08928 26483 ft 390 kts 329°
2026-04-26 20:19 51.28364 8.06806 25912 ft 390 kts 329°
2026-04-26 20:19 51.30727 8.04679 25353 ft 390 kts 329°
2026-04-26 20:19 51.33086 8.02552 24771 ft 389 kts 329°
2026-04-26 20:20 51.35449 8.00421 24192 ft 388 kts 329°
2026-04-26 20:20 51.37449 7.98615 23645 ft 387 kts 329°
2026-04-26 20:20 51.39691 7.96589 23011 ft 383 kts 329°
2026-04-26 20:20 51.41964 7.94537 22357 ft 378 kts 329°
2026-04-26 20:21 51.44258 7.92493 21684 ft 374 kts 329°
2026-04-26 20:21 51.46518 7.90487 21092 ft 368 kts 329°
2026-04-26 20:21 51.48739 7.88696 20531 ft 366 kts 336°
2026-04-26 20:21 51.51154 7.87399 19948 ft 365 kts 341°
2026-04-26 20:22 51.53589 7.86249 19388 ft 364 kts 342°
2026-04-26 20:22 51.56016 7.85121 18840 ft 361 kts 342°
2026-04-26 20:22 51.58412 7.84000 18235 ft 355 kts 342°
2026-04-26 20:22 51.60763 7.82888 17644 ft 349 kts 342°
2026-04-26 20:23 51.63069 7.81786 17112 ft 342 kts 342°
2026-04-26 20:23 51.65335 7.80696 16583 ft 337 kts 342°
2026-04-26 20:23 51.67544 7.79629 16064 ft 334 kts 342°
2026-04-26 20:23 51.69760 7.78556 15538 ft 331 kts 342°
2026-04-26 20:24 51.71955 7.77491 15018 ft 328 kts 342°
2026-04-26 20:24 51.74164 7.76418 14504 ft 326 kts 342°
2026-04-26 20:24 51.76296 7.75383 13990 ft 322 kts 342°
2026-04-26 20:24 51.78435 7.74343 13437 ft 317 kts 342°
2026-04-26 20:25 51.80535 7.73320 12925 ft 313 kts 342°
2026-04-26 20:25 51.81906 7.72653 12587 ft 310 kts 342°
2026-04-26 20:25 51.84708 7.71891 11922 ft 307 kts
2026-04-26 20:25 51.86756 7.72764 11484 ft 302 kts 22°
2026-04-26 20:26 51.88499 7.74614 11035 ft 300 kts 37°
2026-04-26 20:26 51.90071 7.76815 10574 ft 298 kts 39°
2026-04-26 20:26 51.91577 7.79013 10440 ft 284 kts 39°
2026-04-26 20:26 51.92999 7.81089 10275 ft 266 kts 39°
2026-04-26 20:27 51.94359 7.83051 9880 ft 257 kts 38°
2026-04-26 20:27 51.95670 7.84927 9524 ft 248 kts 38°
2026-04-26 20:27 51.96943 7.86742 9168 ft 240 kts 38°
2026-04-26 20:27 51.98177 7.88501 8843 ft 232 kts 38°
2026-04-26 20:28 51.99374 7.90207 8514 ft 226 kts 38°
2026-04-26 20:28 52.00540 7.91868 8198 ft 220 kts 38°
2026-04-26 20:28 52.01676 7.93485 7896 ft 215 kts 38°
2026-04-26 20:28 52.02771 7.95045 7611 ft 209 kts 38°
2026-04-26 20:29 52.03853 7.96587 7317 ft 204 kts 38°
2026-04-26 20:29 52.04894 7.98072 7051 ft 200 kts 38°
2026-04-26 20:29 52.05924 7.99540 6811 ft 194 kts 38°
2026-04-26 20:29 52.06933 8.00980 6517 ft 192 kts 38°
2026-04-26 20:30 52.07920 8.02389 6230 ft 191 kts 39°
2026-04-26 20:30 52.08912 8.03807 5956 ft 189 kts 39°
2026-04-26 20:30 52.09913 8.05237 5499 ft 197 kts 39°
2026-04-26 20:30 52.10942 8.06709 5192 ft 195 kts 40°
2026-04-26 20:31 52.11980 8.08019 5016 ft 185 kts 21°
2026-04-26 20:31 52.13194 8.08174 4863 ft 171 kts 347°
2026-04-26 20:31 52.14317 8.07630 4730 ft 168 kts 341°
2026-04-26 20:31 52.15397 8.07034 4571 ft 158 kts 341°
2026-04-26 20:32 52.16405 8.06474 4438 ft 152 kts 341°
2026-04-26 20:32 52.17409 8.05918 4311 ft 151 kts 341°
2026-04-26 20:32 52.18400 8.05371 4176 ft 150 kts 341°
2026-04-26 20:32 52.19353 8.04707 4024 ft 150 kts 323°
2026-04-26 20:33 52.19836 8.03910 3949 ft 149 kts 306°
2026-04-26 20:33 52.20214 8.01780 3754 ft 151 kts 259°
2026-04-26 20:33 52.19938 8.00130 3666 ft 156 kts 261°
2026-04-26 20:33 52.19737 7.98392 3511 ft 155 kts 256°
2026-04-26 20:34 52.19432 7.96717 3354 ft 153 kts 252°
2026-04-26 20:34 52.19096 7.95069 3222 ft 153 kts 251°
2026-04-26 20:34 52.18869 7.93981 3170 ft 151 kts 251°
2026-04-26 20:34 52.18523 7.92350 3062 ft 154 kts 251°
2026-04-26 20:35 52.18188 7.90773 2870 ft 142 kts 251°
2026-04-26 20:35 52.17877 7.89314 2705 ft 133 kts 251°
2026-04-26 20:35 52.17579 7.87911 2525 ft 131 kts 251°
2026-04-26 20:35 52.17278 7.86498 2361 ft 133 kts 251°
2026-04-26 20:36 52.16974 7.85067 2170 ft 134 kts 251°
2026-04-26 20:36 52.16667 7.83630 2013 ft 134 kts 251°
2026-04-26 20:36 52.16358 7.82185 1828 ft 135 kts 251°
2026-04-26 20:36 52.16053 7.80760 1615 ft 134 kts 251°
2026-04-26 20:37 52.15760 7.79344 1432 ft 132 kts 251°
2026-04-26 20:37 52.15461 7.77940 1245 ft 130 kts 251°
2026-04-26 20:37 52.15164 7.76544 1069 ft 131 kts 252°
2026-04-26 20:37 52.14872 7.75153 895 ft 130 kts 251°
2026-04-26 20:38 52.14579 7.73772 716 ft 127 kts 251°
2026-04-26 20:38 52.14293 7.72422 547 ft 125 kts 252°
2026-04-26 20:38 52.14014 7.71098 379 ft 123 kts 252°
2026-04-26 20:38 52.13737 7.69782 209 ft 123 kts 251°
2026-04-26 20:39 52.13487 7.68596 165 ft 91 kts 251°
2026-04-26 20:39 52.13330 7.67851 162 ft 48 kts 251°
2026-04-26 20:39 52.13254 7.67489 159 ft 30 kts 250°
2026-04-26 20:39 52.13192 7.67198 161 ft 22 kts 251°
2026-04-26 20:40 52.13140 7.67050 163 ft 13 kts 203°
2026-04-26 20:40 52.13060 7.67097 163 ft 13 kts 135°
2026-04-26 20:40 52.13029 7.67227 163 ft 12 kts 92°
2026-04-26 20:40 52.13031 7.67247 162 ft 0 kts 75°
2026-04-26 20:43 52.13038 7.67288 162 ft 9 kts 73°
2026-04-26 20:44 52.13063 7.67405 161 ft 13 kts 71°
2026-04-26 20:44 52.13102 7.67591 160 ft 20 kts 71°
2026-04-26 20:44 52.13153 7.67830 164 ft 23 kts 71°
2026-04-26 20:44 52.13193 7.68025 166 ft 18 kts 71°
2026-04-26 20:45 52.13233 7.68216 169 ft 18 kts 71°
2026-04-26 20:45 52.13238 7.68320 169 ft 6 kts 123°
2026-04-26 20:45 52.13197 7.68354 169 ft 7 kts 162°
2026-04-26 20:45 52.13151 7.68382 168 ft 7 kts 157°
2026-04-26 20:46 52.13108 7.68422 167 ft 8 kts 131°
2026-04-26 20:46 52.13103 7.68517 166 ft 9 kts 90°
2026-04-26 20:46 52.13103 7.68624 166 ft 10 kts 90°
2026-04-26 20:46 52.13110 7.68753 166 ft 12 kts 73°
2026-04-26 20:47 52.13137 7.68883 166 ft 12 kts 71°
2026-04-26 20:47 52.13154 7.68965 166 ft 12 kts 71°
2026-04-26 20:47 52.13187 7.69132 166 ft 11 kts 70°
2026-04-26 20:47 52.13213 7.69252 166 ft 11 kts 70°
2026-04-26 20:48 52.13229 7.69319 166 ft 5 kts 69°
2026-04-26 20:48 52.13208 7.69342 166 ft 5 kts 191°
2026-04-26 20:48 52.13179 7.69319 166 ft 5 kts 194°
2026-04-26 20:48 52.13171 7.69316 166 ft 3 kts 192°
2026-04-26 20:49 52.13164 7.69314 167 ft 0 kts 190°
2026-04-26 20:49 52.13161 7.69313 167 ft 0 kts 190°
2026-04-26 20:50 52.13031 7.67247 162 ft 0 kts 75°
2026-04-26 20:51 52.16052 7.80600 1229 ft 147 kts 264°
2026-04-26 20:51 52.15893 7.79976 1524 ft 131 kts 252°
2026-04-26 20:51 52.15594 7.78568 1323 ft 131 kts 251°
2026-04-26 20:51 52.15298 7.77173 1133 ft 130 kts 251°
2026-04-26 20:52 52.15003 7.75782 996 ft 130 kts 252°
2026-04-26 20:52 52.14709 7.74390 784 ft 129 kts 252°
2026-04-26 20:52 52.14420 7.73026 629 ft 126 kts 251°
2026-04-26 20:52 52.14139 7.71690 461 ft 123 kts 252°
2026-04-26 20:53 52.13863 7.70371 281 ft 123 kts 252°
2026-04-26 20:53 52.13589 7.69087 170 ft 111 kts 251°
2026-04-26 20:53 52.13387 7.68121 167 ft 67 kts 251°
2026-04-26 20:53 52.18219 7.90920 2819 ft 143 kts 251°
2026-04-26 20:54 52.17929 7.89559 2742 ft 134 kts 251°
2026-04-26 20:54 52.17629 7.88149 2551 ft 130 kts 251°
2026-04-26 20:54 52.17330 7.86743 2380 ft 132 kts 251°
2026-04-26 20:54 52.17027 7.85316 2197 ft 134 kts 251°
2026-04-26 20:55 52.16725 7.83897 2037 ft 134 kts 251°
2026-04-26 20:55 52.15160 7.76524 1067 ft 130 kts 252°